Find Starlink 33719

NORAD ID: 63578 Int'l Des: 2025-076 Owner: SPXS Country: US Constellation: starlink operational
LEOCIRCULAR

当前视图

正在加载3D地球...

About Starlink 33719

Starlink 33719 (NORAD 63578) is a starlink constellation satellite (v2 mini) launched Apr 14, 2025 by SPXS of US. It operates in LEO, CIRCULAR orbit with a mass of 575.00 kg.

即将过境

Passes for default location (London). Set your location on the main map for personalized predictions.

高度历史

Loading altitude history...

两行轨道根数

1 63578U 25076K 26264.40701905 .00011632 00000-0 43141-3 0 9994
2 63578 43.0046 296.3175 0001155 267.6856 92.3863 15.27590542 81766
Epoch: Sep 21, 2026 • Age: 26 hours

当前状态

高度 495.4 km
远地点 / 近地点 N/A
速度 7.62 km/s
星下点 -42.79°S, 9.15°E
发射日期 Apr 14, 2025
运行时间 1.4 years
类型 internet

技术详情

分类 Payload
质量 575.00 kg
干质量 530.00 kg
长度 0.30 m
跨度 29.00 m
形状 ? Box + pan
制造商 SPXS
平台类型 Starlink V2MO
阶段状态 In Orbit
所有者/国家 SPXS/US

Most Searched